�������l�o���
Date,Time,MP-1(��Sv/h),MP-2(��Sv/h),MP-3(��Sv/h),MP-4(��Sv/h),MP-5(��Sv/h),MP-6(��Sv/h),MP-7(��Sv/h),MP-8(��Sv/h),����,����(m/s),���J
2021/03/20,00:00,0.644,0.947,0.596,1.187,0.831,0.373,0.660,0.618,�쐼,2.6,��
2021/03/20,00:10,0.642,0.948,0.597,1.185,0.831,0.374,0.660,0.618,�쐼,2.0,��
2021/03/20,00:20,0.643,0.948,0.596,1.187,0.832,0.374,0.661,0.620,�쐼,1.9,��
2021/03/20,00:30,0.643,0.948,0.598,1.185,0.833,0.374,0.661,0.621,���쐼,1.7,��
2021/03/20,00:40,0.642,0.946,0.596,1.188,0.834,0.374,0.661,0.620,���k��,1.5,��
2021/03/20,00:50,0.643,0.947,0.596,1.185,0.833,0.374,0.662,0.620,�k�k��,1.5,��
2021/03/20,01:00,0.643,0.948,0.596,1.184,0.832,0.374,0.662,0.621,�k,4.2,��
2021/03/20,01:10,0.640,0.948,0.597,1.188,0.831,0.374,0.661,0.619,�k,4.6,��
2021/03/20,01:20,0.644,0.945,0.597,1.186,0.833,0.375,0.663,0.620,�k,3.5,��
2021/03/20,01:30,0.644,0.950,0.595,1.185,0.833,0.373,0.662,0.619,�k�k��,4.3,��
2021/03/20,01:40,0.644,0.947,0.596,1.186,0.831,0.374,0.660,0.622,�k,5.4,��
2021/03/20,01:50,0.641,0.949,0.596,1.188,0.830,0.374,0.661,0.619,�k,5.4,��
2021/03/20,02:00,0.643,0.946,0.597,1.187,0.830,0.375,0.660,0.619,�k�k��,4.9,��
2021/03/20,02:10,0.642,0.949,0.596,1.185,0.833,0.374,0.662,0.618,�k�k��,4.9,��
2021/03/20,02:20,0.644,0.951,0.596,1.185,0.832,0.375,0.660,0.620,�k�k��,4.7,��
2021/03/20,02:30,0.642,0.947,0.594,1.188,0.834,0.376,0.660,0.618,�k�k��,5.2,��
2021/03/20,02:40,0.643,0.948,0.596,1.189,0.831,0.374,0.662,0.619,�k��,4.0,��
2021/03/20,02:50,0.643,0.949,0.595,1.185,0.833,0.376,0.661,0.619,�k�k��,4.8,��
2021/03/20,03:00,0.642,0.950,0.595,1.186,0.832,0.375,0.660,0.619,�k�k��,5.3,��
2021/03/20,03:10,0.644,0.948,0.596,1.187,0.832,0.374,0.660,0.618,�k�k��,5.2,��
2021/03/20,03:20,0.640,0.950,0.596,1.183,0.831,0.375,0.660,0.620,�k�k��,5.6,��
2021/03/20,03:30,0.642,0.948,0.598,1.184,0.833,0.374,0.660,0.620,�k�k��,5.8,��
2021/03/20,03:40,0.642,0.947,0.594,1.186,0.830,0.375,0.662,0.621,�k�k��,5.5,��
2021/03/20,03:50,0.643,0.947,0.596,1.186,0.833,0.373,0.661,0.619,�k�k��,5.7,��
2021/03/20,04:00,0.643,0.948,0.597,1.186,0.831,0.374,0.661,0.619,�k�k��,5.2,��
2021/03/20,04:10,0.643,0.946,0.596,1.185,0.831,0.375,0.661,0.621,�k�k��,5.7,��
2021/03/20,04:20,0.643,0.946,0.597,1.187,0.830,0.373,0.660,0.620,�k�k��,5.7,��
2021/03/20,04:30,0.644,0.948,0.596,1.188,0.831,0.374,0.659,0.620,�k�k��,4.6,��
2021/03/20,04:40,0.643,0.948,0.596,1.188,0.832,0.375,0.661,0.621,�k�k��,5.3,��
2021/03/20,04:50,0.642,0.946,0.596,1.186,0.831,0.373,0.662,0.621,�k�k��,4.9,��
2021/03/20,05:00,0.643,0.947,0.597,1.186,0.833,0.374,0.661,0.620,�k�k��,5.0,��
2021/03/20,05:10,0.642,0.949,0.595,1.188,0.833,0.374,0.661,0.619,�k�k��,5.4,��
2021/03/20,05:20,0.643,0.947,0.598,1.186,0.831,0.374,0.660,0.618,�k�k��,5.5,��
2021/03/20,05:30,0.644,0.949,0.597,1.187,0.832,0.374,0.661,0.619,�k�k��,5.0,��
2021/03/20,05:40,0.642,0.946,0.597,1.188,0.834,0.375,0.661,0.621,�k�k��,4.5,��
2021/03/20,05:50,0.643,0.947,0.597,1.185,0.834,0.373,0.661,0.620,�k�k��,4.4,��
2021/03/20,06:00,0.644,0.945,0.597,1.188,0.834,0.375,0.661,0.620,�k�k��,4.3,��
2021/03/20,06:10,0.641,0.949,0.596,1.186,0.831,0.374,0.661,0.619,�k�k��,4.4,��
2021/03/20,06:20,0.644,0.948,0.596,1.185,0.834,0.373,0.659,0.620,�k�k��,4.1,��
2021/03/20,06:30,0.641,0.946,0.597,1.187,0.833,0.375,0.661,0.620,�k�k��,4.0,��
2021/03/20,06:40,0.643,0.948,0.597,1.184,0.831,0.374,0.660,0.619,�k�k��,3.2,��
2021/03/20,06:50,0.643,0.947,0.594,1.185,0.833,0.375,0.660,0.620,�k�k��,3.3,��
2021/03/20,07:00,0.642,0.947,0.597,1.186,0.833,0.373,0.662,0.619,�k��,3.8,��
2021/03/20,07:10,0.642,0.948,0.595,1.185,0.833,0.373,0.661,0.619,�k��,3.4,��
2021/03/20,07:20,0.643,0.948,0.596,1.185,0.833,0.373,0.661,0.622,�k�k��,3.1,��
2021/03/20,07:30,0.642,0.948,0.595,1.185,0.831,0.375,0.660,0.620,�k�k��,2.3,��
2021/03/20,07:40,0.641,0.948,0.597,1.187,0.833,0.373,0.661,0.621,�k,2.5,��
2021/03/20,07:50,0.643,0.948,0.598,1.187,0.835,0.374,0.659,0.618,�k�k��,2.3,��
2021/03/20,08:00,0.642,0.948,0.596,1.185,0.833,0.374,0.661,0.620,�k�k��,2.3,��
2021/03/20,08:10,0.645,0.950,0.597,1.185,0.834,0.374,0.660,0.621,�k�k��,2.3,��
2021/03/20,08:20,0.644,0.949,0.597,1.186,0.833,0.375,0.661,0.621,�k�k��,2.6,��
2021/03/20,08:30,0.641,0.947,0.596,1.186,0.831,0.374,0.661,0.619,�k,2.6,��
2021/03/20,08:40,0.645,0.950,0.596,1.186,0.833,0.373,0.660,0.621,�k,3.0,��
2021/03/20,08:50,0.642,0.947,0.596,1.187,0.833,0.374,0.659,0.620,�k,2.3,��
2021/03/20,09:00,0.644,0.946,0.596,1.186,0.832,0.375,0.659,0.621,�k,2.9,��
2021/03/20,09:10,0.642,0.947,0.596,1.185,0.832,0.374,0.660,0.618,�k�k��,3.2,��
2021/03/20,09:20,0.643,0.947,0.597,1.187,0.832,0.373,0.660,0.618,�k�k��,4.4,��
2021/03/20,09:30,0.644,0.946,0.597,1.187,0.834,0.374,0.661,0.621,�k�k��,4.1,��
2021/03/20,09:40,0.644,0.948,0.596,1.186,0.832,0.374,0.661,0.620,�k�k��,4.1,��
2021/03/20,09:50,0.643,0.949,0.595,1.186,0.835,0.374,0.659,0.621,�k�k��,5.2,��
2021/03/20,10:00,0.642,0.946,0.596,1.186,0.832,0.375,0.659,0.620,�k,5.2,��
2021/03/20,10:10,0.643,0.948,0.595,1.186,0.835,0.375,0.659,0.620,�k,5.7,��
2021/03/20,10:20,0.643,0.948,0.596,1.188,0.832,0.374,0.659,0.620,�k,5.5,��
2021/03/20,10:30,0.643,0.949,0.595,1.185,0.832,0.374,0.658,0.620,��쐼,5.7,��
2021/03/20,10:40,0.644,0.948,0.597,1.186,0.835,0.374,0.659,0.620,�k,5.8,��
2021/03/20,10:50,0.642,0.949,0.596,1.187,0.834,0.375,0.658,0.622,�k�k��,4.7,��
2021/03/20,11:00,0.641,0.948,0.597,1.190,0.834,0.373,0.659,0.620,�k,5.5,��
2021/03/20,11:10,0.645,0.948,0.596,1.185,0.833,0.374,0.659,0.620,�k�k��,5.0,��
2021/03/20,11:20,0.644,0.948,0.596,1.187,0.835,0.374,0.659,0.621,�k,5.2,��
2021/03/20,11:30,0.643,0.949,0.598,1.188,0.833,0.376,0.658,0.620,�k�k��,5.3,��
2021/03/20,11:40,0.643,0.948,0.595,1.186,0.834,0.375,0.658,0.620,�k,4.8,��
2021/03/20,11:50,0.645,0.949,0.596,1.188,0.834,0.375,0.660,0.620,�k,5.0,��
2021/03/20,12:00,0.644,0.948,0.597,1.188,0.835,0.374,0.658,0.619,�k,4.2,��
2021/03/20,12:10,0.644,0.949,0.597,1.187,0.833,0.374,0.661,0.622,��,4.2,��
2021/03/20,12:20,0.644,0.948,0.596,1.188,0.836,0.375,0.659,0.621,�k,4.9,��
2021/03/20,12:30,0.643,0.949,0.597,1.186,0.835,0.375,0.660,0.622,�k,3.8,��
2021/03/20,12:40,0.643,0.947,0.595,1.187,0.833,0.374,0.660,0.620,�k,4.1,��
2021/03/20,12:50,0.645,0.950,0.597,1.187,0.834,0.375,0.660,0.620,�k,4.2,��
2021/03/20,13:00,0.643,0.950,0.598,1.188,0.834,0.376,0.659,0.621,�k,4.2,��
2021/03/20,13:10,0.644,0.949,0.595,1.187,0.834,0.375,0.660,0.621,�k,3.8,��
2021/03/20,13:20,0.644,0.949,0.597,1.188,0.833,0.374,0.659,0.620,�k,4.2,��
2021/03/20,13:30,0.645,0.951,0.598,1.186,0.833,0.374,0.659,0.621,�k,3.3,�L
2021/03/20,13:40,0.645,0.950,0.598,1.189,0.834,0.374,0.660,0.622,�k�k��,4.1,�L
2021/03/20,13:50,0.642,0.949,0.597,1.189,0.833,0.375,0.659,0.620,�k�k��,4.5,�L
2021/03/20,14:00,0.643,0.947,0.596,1.187,0.834,0.376,0.661,0.621,�k�k��,4.7,��
2021/03/20,14:10,0.644,0.951,0.596,1.188,0.834,0.376,0.660,0.622,�k,4.4,��
2021/03/20,14:20,0.646,0.949,0.597,1.188,0.833,0.374,0.660,0.621,�k�k��,5.2,��
2021/03/20,14:30,0.643,0.950,0.597,1.186,0.833,0.374,0.660,0.620,�k�k��,4.7,��
2021/03/20,14:40,0.644,0.950,0.596,1.187,0.834,0.375,0.661,0.622,�k�k��,4.1,�L
2021/03/20,14:50,0.643,0.949,0.596,1.189,0.833,0.374,0.662,0.623,�k�k��,4.1,��
2021/03/20,15:00,0.644,0.948,0.599,1.186,0.834,0.374,0.662,0.622,�k�k��,3.7,��
2021/03/20,15:10,0.642,0.947,0.597,1.189,0.835,0.374,0.660,0.620,�k��,4.4,��
2021/03/20,15:20,0.646,0.949,0.597,1.191,0.835,0.374,0.660,0.619,�k��,4.3,��
2021/03/20,15:30,0.644,0.948,0.596,1.186,0.835,0.376,0.660,0.620,�k��,4.9,��
2021/03/20,15:40,0.644,0.950,0.597,1.188,0.834,0.375,0.660,0.621,�k��,3.8,��
2021/03/20,15:50,0.645,0.950,0.597,1.188,0.833,0.376,0.659,0.623,�k��,4.7,��
2021/03/20,16:00,0.645,0.950,0.596,1.186,0.834,0.375,0.662,0.621,�k�k��,4.3,��
2021/03/20,16:10,0.646,0.950,0.597,1.188,0.835,0.374,0.660,0.621,�k�k��,5.5,��
2021/03/20,16:20,0.644,0.950,0.596,1.187,0.833,0.375,0.660,0.621,�k�k��,4.4,��
2021/03/20,16:30,0.643,0.951,0.598,1.189,0.836,0.376,0.660,0.620,�k��,4.6,��
2021/03/20,16:40,0.643,0.949,0.597,1.188,0.836,0.374,0.660,0.620,�k�k��,5.9,��
2021/03/20,16:50,0.643,0.950,0.598,1.187,0.833,0.376,0.659,0.620,�k�k��,4.2,��
2021/03/20,17:00,0.644,0.949,0.596,1.188,0.833,0.374,0.660,0.622,�k��,5.9,��
2021/03/20,17:10,0.644,0.948,0.598,1.187,0.836,0.375,0.660,0.621,�k�k��,5.7,��
2021/03/20,17:20,0.644,0.950,0.596,1.186,0.832,0.375,0.660,0.619,�k�k��,5.0,��
2021/03/20,17:30,0.644,0.951,0.596,1.186,0.834,0.375,0.661,0.620,�k�k��,5.8,��
2021/03/20,17:40,0.643,0.951,0.596,1.187,0.834,0.375,0.660,0.621,�k�k��,5.5,��
2021/03/20,17:50,0.644,0.951,0.595,1.186,0.833,0.375,0.661,0.620,�k�k��,5.9,��
2021/03/20,18:00,0.644,0.949,0.596,1.189,0.834,0.374,0.662,0.622,�k�k��,7.2,��
2021/03/20,18:10,0.644,0.950,0.597,1.189,0.834,0.374,0.660,0.622,�k�k��,6.4,�L
2021/03/20,18:20,0.644,0.950,0.595,1.188,0.833,0.374,0.660,0.619,�k�k��,7.0,�L
2021/03/20,18:30,0.646,0.949,0.597,1.189,0.832,0.375,0.661,0.621,�k�k��,6.2,�L
2021/03/20,18:40,0.643,0.949,0.597,1.188,0.832,0.375,0.662,0.621,�k�k��,5.5,�L
2021/03/20,18:50,0.644,0.949,0.597,1.188,0.832,0.374,0.661,0.621,�k�k��,6.5,�L
2021/03/20,19:00,0.644,0.948,0.596,1.187,0.833,0.375,0.661,0.621,�k�k��,5.0,�L
2021/03/20,19:10,0.644,0.950,0.597,1.188,0.833,0.374,0.660,0.622,�k�k��,6.1,��
2021/03/20,19:20,0.646,0.951,0.598,1.187,0.834,0.377,0.660,0.620,�k�k��,6.0,�L
2021/03/20,19:30,0.645,0.949,0.598,1.188,0.833,0.376,0.662,0.620,�k�k��,6.1,��
2021/03/20,19:40,0.646,0.949,0.597,1.187,0.835,0.375,0.662,0.620,�k�k��,5.5,��
2021/03/20,19:50,0.643,0.948,0.597,1.188,0.834,0.374,0.661,0.620,�k�k��,5.2,��
2021/03/20,20:00,0.643,0.950,0.597,1.188,0.833,0.375,0.662,0.620,�k�k��,6.3,��
2021/03/20,20:10,0.644,0.948,0.596,1.186,0.834,0.375,0.660,0.619,�k�k��,6.3,��
2021/03/20,20:20,0.644,0.951,0.597,1.188,0.835,0.375,0.661,0.620,�k�k��,6.2,��
2021/03/20,20:30,0.646,0.947,0.597,1.190,0.834,0.375,0.662,0.621,�k�k��,5.5,��
2021/03/20,20:40,0.642,0.951,0.598,1.189,0.831,0.375,0.661,0.621,�k�k��,5.4,��
2021/03/20,20:50,0.645,0.946,0.597,1.187,0.832,0.374,0.662,0.621,�k�k��,6.1,��
2021/03/20,21:00,0.643,0.949,0.596,1.187,0.835,0.374,0.661,0.620,�k�k��,5.9,��
2021/03/20,21:10,0.645,0.949,0.596,1.187,0.833,0.374,0.660,0.622,�k�k��,5.3,��
2021/03/20,21:20,0.643,0.951,0.597,1.188,0.831,0.374,0.662,0.621,�k�k��,5.6,��
2021/03/20,21:30,0.643,0.951,0.597,1.185,0.834,0.375,0.661,0.619,�k�k��,5.4,�L
2021/03/20,21:40,0.643,0.949,0.598,1.187,0.833,0.375,0.661,0.621,�k�k��,5.3,�L
2021/03/20,21:50,0.644,0.950,0.597,1.190,0.833,0.376,0.662,0.620,�k,5.2,�L
2021/03/20,22:00,0.646,0.949,0.597,1.190,0.832,0.378,0.661,0.621,�k�k��,4.2,�L
2021/03/20,22:10,0.644,0.948,0.598,1.188,0.834,0.377,0.660,0.621,�k,4.4,�L
2021/03/20,22:20,0.644,0.947,0.599,1.190,0.833,0.376,0.662,0.620,�k,3.9,�L
2021/03/20,22:30,0.644,0.949,0.599,1.187,0.833,0.378,0.660,0.621,�k�k��,3.8,�L
2021/03/20,22:40,0.644,0.949,0.599,1.185,0.833,0.380,0.660,0.620,�k,3.7,�L
2021/03/20,22:50,0.646,0.947,0.600,1.186,0.831,0.377,0.661,0.620,�k�k��,2.8,�L
2021/03/20,23:00,0.646,0.944,0.598,1.187,0.831,0.380,0.661,0.618,�k�k��,2.5,�L
2021/03/20,23:10,0.642,0.942,0.597,1.185,0.828,0.378,0.659,0.620,�k�k��,3.4,�L
2021/03/20,23:20,0.643,0.937,0.597,1.185,0.825,0.378,0.659,0.619,�k�k��,2.3,�L
2021/03/20,23:30,0.641,0.937,0.595,1.180,0.823,0.379,0.656,0.618,�k�k��,2.3,�L
2021/03/20,23:40,0.641,0.933,0.594,1.180,0.821,0.378,0.658,0.619,�k,2.2,�L
2021/03/20,23:50,0.639,0.933,0.593,1.177,0.822,0.377,0.657,0.618,�k,2.6,�L
